Time,TemperatureF,DewpointF,PressureIn,WindDirection,WindDirectionDegrees,WindSpeedMPH,WindSpeedGustMPH,Humidity,HourlyPrecipIn,Conditions,Clouds,dailyrainin,SoftwareType,DateUTC
2013-03-28 00:08:00,35.8,29.3,30.06,North,0,1.7,-999.0,77,-99.99,,,0.00,Acu-Link.com,2013-03-28 04:08:00,
2013-03-28 00:23:00,35.6,29.7,30.06,SE,135,1.1,-999.0,79,-99.99,,,0.00,Acu-Link.com,2013-03-28 04:23:00,
2013-03-28 00:38:00,36.0,29.8,30.07,NE,45,0.0,-999.0,78,-99.99,,,0.00,Acu-Link.com,2013-03-28 04:38:00,
2013-03-28 00:53:00,35.1,30.8,30.07,NNW,337,1.1,-999.0,84,-99.99,,,0.00,Acu-Link.com,2013-03-28 04:53:00,
2013-03-28 01:08:00,34.2,32.1,30.07,SE,135,0.0,-999.0,92,-99.99,,,0.00,Acu-Link.com,2013-03-28 05:08:00,
2013-03-28 01:24:00,33.8,33.3,30.07,WSW,247,1.1,-999.0,98,-99.99,,,0.00,Acu-Link.com,2013-03-28 05:24:00,
2013-03-28 01:39:00,32.9,32.4,30.07,South,180,0.0,-999.0,98,-99.99,,,0.00,Acu-Link.com,2013-03-28 05:39:00,
2013-03-28 01:54:00,32.7,32.2,30.07,WNW,292,0.0,-999.0,98,-99.99,,,0.00,Acu-Link.com,2013-03-28 05:54:00,
2013-03-28 02:09:00,33.4,32.9,30.07,South,180,1.1,-999.0,98,-99.99,,,0.00,Acu-Link.com,2013-03-28 06:09:00,
2013-03-28 02:24:00,33.8,33.3,30.06,NW,315,1.1,-999.0,98,-99.99,,,0.00,Acu-Link.com,2013-03-28 06:24:00,
2013-03-28 02:39:00,34.3,33.8,30.06,SSW,202,1.7,-999.0,98,-99.99,,,0.00,Acu-Link.com,2013-03-28 06:39:00,
2013-03-28 02:54:00,34.2,33.7,30.06,North,0,1.7,-999.0,98,-99.99,,,0.00,Acu-Link.com,2013-03-28 06:54:00,
2013-03-28 03:09:00,34.0,33.5,30.05,SE,135,0.0,-999.0,98,-99.99,,,0.00,Acu-Link.com,2013-03-28 07:09:00,
2013-03-28 03:24:00,33.6,33.1,30.05,East,90,0.0,-999.0,98,-99.99,,,0.00,Acu-Link.com,2013-03-28 07:24:00,
2013-03-28 03:40:00,33.3,32.8,30.05,SW,225,1.7,-999.0,98,-99.99,,,0.00,Acu-Link.com,2013-03-28 07:40:00,
2013-03-28 03:55:00,33.4,32.9,30.05,SSE,157,0.0,-999.0,98,-99.99,,,0.00,Acu-Link.com,2013-03-28 07:55:00,
2013-03-28 04:10:00,33.4,32.9,30.05,NNW,337,0.0,-999.0,98,-99.99,,,0.00,Acu-Link.com,2013-03-28 08:10:00,
2013-03-28 04:25:00,32.9,32.4,30.04,South,180,0.0,-999.0,98,-99.99,,,0.00,Acu-Link.com,2013-03-28 08:25:00,
2013-03-28 04:40:00,32.2,31.7,30.05,NNE,22,1.7,-999.0,98,-99.99,,,0.00,Acu-Link.com,2013-03-28 08:40:00,
2013-03-28 04:55:00,32.2,31.7,30.05,NNW,337,1.1,-999.0,98,-99.99,,,0.00,Acu-Link.com,2013-03-28 08:55:00,
2013-03-28 05:11:00,31.6,31.1,30.05,SSE,157,0.0,-999.0,98,-99.99,,,0.00,Acu-Link.com,2013-03-28 09:11:00,
2013-03-28 05:26:00,31.3,30.8,30.04,SSE,157,0.0,-999.0,98,-99.99,,,0.00,Acu-Link.com,2013-03-28 09:26:00,
2013-03-28 05:41:00,31.6,31.1,30.05,SSW,202,1.1,-999.0,98,-99.99,,,0.00,Acu-Link.com,2013-03-28 09:41:00,
2013-03-28 06:11:00,31.5,31.0,30.05,West,270,0.0,-999.0,98,-99.99,,,0.00,Acu-Link.com,2013-03-28 10:11:00,
2013-03-28 06:26:00,31.8,31.3,30.05,WSW,247,0.0,-999.0,98,-99.99,,,0.00,Acu-Link.com,2013-03-28 10:26:00,
2013-03-28 06:56:00,32.0,31.5,30.05,SSW,202,1.7,-999.0,98,-99.99,,,0.00,Acu-Link.com,2013-03-28 10:56:00,
2013-03-28 07:11:00,32.0,31.5,30.06,NW,315,1.7,-999.0,98,-99.99,,,0.00,Acu-Link.com,2013-03-28 11:11:00,
2013-03-28 07:42:00,33.3,32.8,30.07,SE,135,1.1,-999.0,98,-99.99,,,0.00,Acu-Link.com,2013-03-28 11:42:00,
2013-03-28 07:57:00,34.0,33.5,30.06,SW,225,2.2,-999.0,98,-99.99,,,0.00,Acu-Link.com,2013-03-28 11:57:00,
2013-03-28 08:27:00,37.8,37.3,30.07,WNW,292,2.2,-999.0,98,-99.99,,,0.00,Acu-Link.com,2013-03-28 12:27:00,
2013-03-28 08:42:00,40.1,36.5,30.07,ESE,112,2.2,-999.0,87,-99.99,,,0.00,Acu-Link.com,2013-03-28 12:42:00,
2013-03-28 08:57:00,41.7,36.9,30.08,North,0,2.2,-999.0,83,-99.99,,,0.00,Acu-Link.com,2013-03-28 12:57:00,
2013-03-28 09:12:00,41.9,37.1,30.08,ESE,112,3.2,-999.0,83,-99.99,,,0.00,Acu-Link.com,2013-03-28 13:12:00,
2013-03-28 09:27:00,43.9,37.8,30.07,NNE,22,5.8,-999.0,79,-99.99,,,0.00,Acu-Link.com,2013-03-28 13:27:00,
2013-03-28 09:42:00,45.1,35.5,30.07,North,0,4.2,-999.0,69,-99.99,,,0.00,Acu-Link.com,2013-03-28 13:42:00,
2013-03-28 09:58:00,46.0,32.9,30.07,WSW,247,3.2,-999.0,60,-99.99,,,0.00,Acu-Link.com,2013-03-28 13:58:00,
2013-03-28 10:13:00,46.6,31.8,30.08,NW,315,9.4,-999.0,56,-99.99,,,0.00,Acu-Link.com,2013-03-28 14:13:00,
2013-03-28 10:28:00,47.1,32.2,30.07,East,90,4.7,-999.0,56,-99.99,,,0.00,Acu-Link.com,2013-03-28 14:28:00,
2013-03-28 10:43:00,47.7,31.4,30.07,WNW,292,3.2,-999.0,53,-99.99,,,0.00,Acu-Link.com,2013-03-28 14:43:00,
2013-03-28 10:58:00,48.2,31.9,30.07,ESE,112,2.2,-999.0,53,-99.99,,,0.00,Acu-Link.com,2013-03-28 14:58:00,
2013-03-28 11:13:00,49.5,33.1,30.07,NW,315,2.2,-999.0,53,-99.99,,,0.00,Acu-Link.com,2013-03-28 15:13:00,
2013-03-28 11:28:00,50.5,31.6,30.06,NNW,337,2.2,-999.0,48,-99.99,,,0.00,Acu-Link.com,2013-03-28 15:28:00,
2013-03-28 11:43:00,51.3,32.3,30.06,East,90,4.2,-999.0,48,-99.99,,,0.00,Acu-Link.com,2013-03-28 15:43:00,
2013-03-28 11:58:00,50.9,32.4,30.06,NNW,337,2.7,-999.0,49,-99.99,,,0.00,Acu-Link.com,2013-03-28 15:58:00,
2013-03-28 12:14:00,52.0,33.4,30.05,West,270,5.8,-999.0,49,-99.99,,,0.00,Acu-Link.com,2013-03-28 16:14:00,
2013-03-28 12:29:00,52.0,31.9,30.05,NW,315,4.7,-999.0,46,-99.99,,,0.00,Acu-Link.com,2013-03-28 16:29:00,
2013-03-28 12:44:00,51.6,31.5,30.04,South,180,5.3,-999.0,46,-99.99,,,0.00,Acu-Link.com,2013-03-28 16:44:00,
2013-03-28 12:59:00,51.4,30.2,30.04,ENE,67,4.2,-999.0,44,-99.99,,,0.00,Acu-Link.com,2013-03-28 16:59:00,
2013-03-28 13:14:00,52.9,32.1,30.04,NW,315,3.2,-999.0,45,-99.99,,,0.00,Acu-Link.com,2013-03-28 17:14:00,
2013-03-28 13:29:00,53.1,32.3,30.03,West,270,4.7,-999.0,45,-99.99,,,0.00,Acu-Link.com,2013-03-28 17:29:00,
2013-03-28 13:44:00,54.3,34.0,30.03,NW,315,4.2,-999.0,46,-99.99,,,0.00,Acu-Link.com,2013-03-28 17:44:00,
2013-03-28 14:00:00,54.5,33.0,30.03,SSE,157,5.8,-999.0,44,-99.99,,,0.00,Acu-Link.com,2013-03-28 18:00:00,
2013-03-28 14:15:00,55.2,33.7,30.01,NW,315,2.7,-999.0,44,-99.99,,,0.00,Acu-Link.com,2013-03-28 18:15:00,
2013-03-28 14:30:00,54.9,31.0,30.01,West,270,4.7,-999.0,40,-99.99,,,0.00,Acu-Link.com,2013-03-28 18:30:00,
2013-03-28 14:45:00,55.4,30.9,30.01,South,180,4.2,-999.0,39,-99.99,,,0.00,Acu-Link.com,2013-03-28 18:45:00,
2013-03-28 15:00:00,56.1,31.5,30.00,NNW,337,7.3,-999.0,39,-99.99,,,0.00,Acu-Link.com,2013-03-28 19:00:00,
2013-03-28 15:15:00,56.5,31.2,30.00,NNW,337,3.7,-999.0,38,-99.99,,,0.00,Acu-Link.com,2013-03-28 19:15:00,
2013-03-28 15:30:00,56.5,31.2,29.99,NNE,22,4.2,-999.0,38,-99.99,,,0.00,Acu-Link.com,2013-03-28 19:30:00,
2013-03-28 15:45:00,55.4,30.9,29.98,East,90,3.7,-999.0,39,-99.99,,,0.00,Acu-Link.com,2013-03-28 19:45:00,
2013-03-28 16:01:00,57.4,31.3,29.99,East,90,2.7,-999.0,37,-99.99,,,0.00,Acu-Link.com,2013-03-28 20:01:00,
2013-03-28 16:16:00,56.7,31.4,29.98,NNE,22,1.1,-999.0,38,-99.99,,,0.00,Acu-Link.com,2013-03-28 20:16:00,
2013-03-28 17:01:00,55.6,30.4,29.98,South,180,4.2,-999.0,38,-99.99,,,0.00,Acu-Link.com,2013-03-28 21:01:00,
2013-03-28 17:16:00,55.8,30.6,29.99,South,180,3.7,-999.0,38,-99.99,,,0.00,Acu-Link.com,2013-03-28 21:16:00,
2013-03-28 17:31:00,55.4,29.6,29.99,NW,315,4.2,-999.0,37,-99.99,,,0.00,Acu-Link.com,2013-03-28 21:31:00,
2013-03-28 17:46:00,55.4,30.9,29.99,ESE,112,3.7,-999.0,39,-99.99,,,0.00,Acu-Link.com,2013-03-28 21:46:00,
2013-03-28 18:01:00,55.0,29.9,29.99,West,270,2.2,-999.0,38,-99.99,,,0.00,Acu-Link.com,2013-03-28 22:01:00,
2013-03-28 18:17:00,54.7,29.6,30.00,WNW,292,4.2,-999.0,38,-99.99,,,0.00,Acu-Link.com,2013-03-28 22:17:00,
2013-03-28 18:32:00,54.0,30.2,30.00,SSW,202,5.3,-999.0,40,-99.99,,,0.00,Acu-Link.com,2013-03-28 22:32:00,
2013-03-28 18:47:00,53.6,29.3,30.00,NNE,22,6.3,-999.0,39,-99.99,,,0.00,Acu-Link.com,2013-03-28 22:47:00,
2013-03-28 19:02:00,52.9,29.2,30.01,WNW,292,2.7,-999.0,40,-99.99,,,0.00,Acu-Link.com,2013-03-28 23:02:00,
2013-03-28 19:17:00,52.0,29.0,30.02,NE,45,2.7,-999.0,41,-99.99,,,0.00,Acu-Link.com,2013-03-28 23:17:00,
2013-03-28 19:32:00,51.3,29.6,30.02,NW,315,4.2,-999.0,43,-99.99,,,0.00,Acu-Link.com,2013-03-28 23:32:00,
2013-03-28 19:47:00,50.2,29.7,30.03,North,0,2.2,-999.0,45,-99.99,,,0.00,Acu-Link.com,2013-03-28 23:47:00,
2013-03-28 20:02:00,49.3,29.4,30.03,North,0,1.7,-999.0,46,-99.99,,,0.00,Acu-Link.com,2013-03-29 00:02:00,
2013-03-28 20:17:00,48.6,29.8,30.04,SW,225,1.1,-999.0,48,-99.99,,,0.00,Acu-Link.com,2013-03-29 00:17:00,
2013-03-28 20:33:00,47.5,30.3,30.05,SE,135,0.0,-999.0,51,-99.99,,,0.00,Acu-Link.com,2013-03-29 00:33:00,
2013-03-28 20:48:00,46.2,30.0,30.06,South,180,0.0,-999.0,53,-99.99,,,0.00,Acu-Link.com,2013-03-29 00:48:00,
2013-03-28 21:03:00,45.3,30.1,30.07,SE,135,2.2,-999.0,55,-99.99,,,0.00,Acu-Link.com,2013-03-29 01:03:00,
2013-03-28 21:18:00,45.0,30.7,30.07,NE,45,2.2,-999.0,57,-99.99,,,0.00,Acu-Link.com,2013-03-29 01:18:00,
2013-03-28 21:33:00,45.3,30.5,30.08,SSW,202,1.1,-999.0,56,-99.99,,,0.00,Acu-Link.com,2013-03-29 01:33:00,
2013-03-28 21:48:00,44.4,29.7,30.09,West,270,2.2,-999.0,56,-99.99,,,0.00,Acu-Link.com,2013-03-29 01:48:00,
2013-03-28 22:03:00,42.8,29.1,30.09,SE,135,0.0,-999.0,58,-99.99,,,0.00,Acu-Link.com,2013-03-29 02:03:00,
2013-03-28 22:18:00,42.4,30.3,30.10,NNE,22,1.7,-999.0,62,-99.99,,,0.00,Acu-Link.com,2013-03-29 02:18:00,
2013-03-28 22:33:00,43.9,30.1,30.11,ESE,112,2.2,-999.0,58,-99.99,,,0.00,Acu-Link.com,2013-03-29 02:33:00,
2013-03-28 22:49:00,43.9,30.1,30.11,ENE,67,2.2,-999.0,58,-99.99,,,0.00,Acu-Link.com,2013-03-29 02:49:00,
2013-03-28 23:04:00,43.5,29.7,30.12,West,270,0.0,-999.0,58,-99.99,,,0.00,Acu-Link.com,2013-03-29 03:04:00,
2013-03-28 23:19:00,42.8,29.1,30.12,ENE,67,0.0,-999.0,58,-99.99,,,0.00,Acu-Link.com,2013-03-29 03:19:00,
2013-03-28 23:34:00,41.5,29.1,30.12,WNW,292,0.0,-999.0,61,-99.99,,,0.00,Acu-Link.com,2013-03-29 03:34:00,
2013-03-28 23:49:00,40.3,29.1,30.13,SW,225,0.0,-999.0,64,-99.99,,,0.00,Acu-Link.com,2013-03-29 03:49:00,